Puigmal 2600, France 16 day weather forecast

Slopes altitude range 1800 m - 2700m

Number of lifts: 13 Pistes: 32km

In some cases the lift and piste totals shown are for the ski domain (e.g. Three Valleys) rather than individual resort (e.g. Courchevel)

Overview

The 16 day weather forecast is fully updated 4 times every day.

    • Sun 17 FEB 2019
    • Sun 17
    • -3C 7C
    • Mon 18 FEB 2019
    • Mon 18
    • -3C 6C
    • Tue 19 FEB 2019
    • Tue 19
    • -3C 6C
    • Wed 20 FEB 2019
    • Wed 20
    • -2C 7C
    • Thu 21 FEB 2019
    • Thu 21
    • -1C 8C
    • Fri 22 FEB 2019
    • Fri 22
    • 0C 10C
    • Sat 23 FEB 2019
    • Sat 23
    • 0C 9C
    • Sun 24 FEB 2019
    • Sun 24
    • -2C 8C
    • Mon 25 FEB 2019
    • Mon 25
    • 7C 18C
    • Tue 26 FEB 2019
    • Tue 26
    • 7C 18C
    • Wed 27 FEB 2019
    • Wed 27
    • 7C 18C
    • Thu 28 FEB 2019
    • Thu 28
    • 7C 18C
    • Fri 01 MAR 2019
    • Fri 01
    • 6C 15C
    • Sat 02 MAR 2019
    • Sat 02
    • 4C 13C
    • Sun 03 MAR 2019
    • Sun 03
    • 5C 17C
    • Mon 04 MAR 2019
    • Mon 04
    • 6C 16C

Date:

Time Type 0°C level Temp Chill Snow Cloud Speed Gust Dir Press
12:00 2695m 7°C 7_8 0cm 0% 8mph 10mph 1024mB
15:00 2461m 7°C 7_7 0cm 0% 7mph 9mph 1022mB
18:00 1595m 7°C 7_4 0cm 12% 4mph 5mph 1023mB
21:00 1449m -3°C -3_4 0cm 65% 4mph 5mph 1024mB
0:00 1434m -3°C -3_4 0cm 71% 4mph 5mph 1023mB
3:00 1411m -3°C -3_3 0cm 66% 3mph 5mph 1022mB
6:00 1426m -3°C -3_4 0cm 66% 4mph 5mph 1022mB
9:00 2326m -3°C -3_6 0cm 75% 6mph 9mph 1022mB
12:00 2344m 6°C 6_8 0cm 76% 8mph 10mph 1021mB
15:00 2331m 6°C 6_7 0cm 82% 7mph 8mph 1019mB
18:00 1613m 6°C 6_3 0cm 80% 3mph 4mph 1020mB
21:00 1504m -2°C -2_2 0cm 65% 2mph 3mph 1022mB
0:00 1513m -3°C -3_2 0cm 68% 2mph 3mph 1023mB
3:00 1495m -3°C -3_2 0cm 58% 2mph 3mph 1023mB
6:00 1469m -3°C -3_2 0cm 60% 2mph 3mph 1023mB
9:00 2166m -3°C -3_1 0cm 60% 1mph 1mph 1024mB
12:00 2280m 6°C 6_3 0cm 45% 3mph 2mph 1023mB
15:00 2314m 6°C 6_3 0cm 28% 3mph 2mph 1021mB
18:00 1680m 6°C 6_2 0cm 41% 2mph 2mph 1022mB
21:00 1563m -2°C -2_1 0cm 0% 1mph 2mph 1024mB
0:00 1575m -2°C -2_1 0cm 0% 1mph 2mph 1024mB
3:00 1576m -2°C -2_1 0cm 0% 1mph 2mph 1024mB
6:00 1561m -2°C -2_1 0cm 0% 1mph 2mph 1024mB
9:00 2247m -2°C -2_1 0cm 0% 1mph 1mph 1025mB
12:00 2393m 7°C 7_2 0cm 0% 2mph 2mph 1025mB
15:00 2448m 7°C 7_2 0cm 0% 2mph 2mph 1024mB
18:00 1862m 7°C 7_0 0cm 0% 0mph 1mph 1025mB
21:00 1660m -1°C -1_1 0cm 0% 1mph 2mph 1027mB
0:00 1629m -2°C -2_0 0cm 0% 0mph 1mph 1028mB
3:00 1624m -2°C -2_1 0cm 0% 1mph 2mph 1028mB
6:00 1662m -2°C -2_1 0cm 0% 1mph 2mph 1028mB
9:00 2576m -1°C -1_2 0cm 0% 2mph 2mph 1029mB
12:00 2524m 8°C 8_4 0cm 0% 4mph 4mph 1028mB
15:00 2568m 8°C 8_3 0cm 0% 3mph 3mph 1027mB
18:00 2385m 8°C 8_2 0cm 22% 2mph 2mph 1029mB
21:00 2627m 0°C 0_3 0cm 58% 3mph 4mph 1030mB
0:00 2647m 0°C 0_3 0cm 61% 3mph 4mph 1031mB
3:00 2743m 0°C 0_5 0cm 63% 5mph 6mph 1030mB
6:00 2857m 0°C 0_6 0cm 78% 6mph 7mph 1030mB
9:00 3158m 0°C 0_6 0cm 73% 6mph 9mph 1030mB
12:00 3292m 10°C 10_5 0cm 54% 5mph 7mph 1028mB
15:00 3235m 11°C 11_6 0cm 0% 6mph 8mph 1025mB
18:00 3051m 11°C 11_7 0cm 0% 7mph 8mph 1026mB
21:00 3119m 1°C 1_7 0cm 0% 7mph 9mph 1027mB
0:00 3113m 1°C 1_7 0cm 0% 7mph 8mph 1027mB
3:00 3230m 1°C 1_6 0cm 0% 6mph 7mph 1027mB
6:00 3172m 0°C 0_3 0cm 0% 3mph 3mph 1029mB
9:00 3498m 0°C 0_5 0cm 0% 5mph 7mph 1030mB
12:00 2788m 9°C 9_7 0cm 0% 7mph 7mph 1030mB
15:00 2654m 9°C 9_6 0cm 0% 6mph 6mph 1029mB
18:00 2389m 9°C 9_4 0cm 0% 4mph 5mph 1031mB
21:00 2019m 0°C 0_2 0cm 0% 2mph 2mph 1033mB
0:00 1941m -1°C -1_2 0cm 0% 2mph 3mph 1033mB
3:00 1744m -1°C -1_3 0cm 0% 3mph 3mph 1033mB
6:00 1662m -1°C -1_3 0cm 0% 3mph 4mph 1035mB
9:00 2097m -2°C -2_4 0cm 0% 4mph 4mph 1036mB
12:00 2443m 8°C 8_4 0cm 0% 4mph 3mph 1035mB
15:00 2553m 8°C 8_4 0cm 0% 4mph 3mph 1034mB
18:00 2399m 8°C 8_3 0cm 22% 3mph 4mph 1036mB
21:00 3119m 7°C 7_5 0cm 0% 5mph 7mph 1037mB
0:00 3175m 7°C 7_5 0cm 0% 5mph 6mph 1037mB
3:00 3117m 7°C 7_4 0cm 0% 4mph 5mph 1036mB
6:00 3123m 7°C 7_4 0cm 0% 4mph 5mph 1036mB
9:00 3107m 7°C 7_2 0cm 0% 2mph 3mph 1036mB
12:00 3173m 18°C 18_4 0cm 0% 4mph 4mph 1034mB
15:00 3207m 18°C 18_5 0cm 0% 5mph 6mph 1031mB
18:00 3242m 18°C 18_5 0cm 0% 5mph 6mph 1032mB
21:00 3306m 9°C 9_5 0cm 0% 5mph 7mph 1032mB
0:00 3398m 9°C 9_5 0cm 0% 5mph 7mph 1031mB
3:00 3471m 8°C 8_5 0cm 0% 5mph 7mph 1029mB
6:00 3490m 8°C 8_5 0cm 0% 5mph 6mph 1028mB
9:00 3366m 7°C 7_5 0cm 0% 5mph 9mph 1027mB
12:00 3302m 18°C 18_6 0cm 0% 6mph 9mph 1026mB
15:00 3246m 18°C 18_5 0cm 0% 5mph 7mph 1025mB
18:00 3255m 18°C 18_2 0cm 0% 2mph 3mph 1026mB
21:00 3340m 9°C 9_4 0cm 0% 4mph 5mph 1028mB
0:00 3336m 9°C 9_5 0cm 0% 5mph 6mph 1028mB
3:00 3312m 8°C 8_5 0cm 0% 5mph 6mph 1028mB
6:00 3301m 7°C 7_4 0cm 0% 4mph 6mph 1029mB
Afternoon 0mm 0 3264m 18°C 18_7 0cm 0% 7mph 13mph 1031mB
Morning 0mm 0 3089m 7°C 7_4 0cm 0% 4mph 6mph 1033mB
Afternoon 0mm 0 2973m 18°C 18_3 0cm 0% 3mph 4mph 1031mB
Morning 0mm 0 2844m 6°C 6_6 0cm 0% 6mph 8mph 1031mB
Afternoon 0mm 0 2649m 15°C 15_6 0cm 0% 6mph 12mph 1030mB
Morning 0mm 0 2462m 4°C 4_7 0cm 0% 7mph 14mph 1034mB
Afternoon 0mm 0 2497m 13°C 13_4 0cm 3% 4mph 6mph 1033mB
Morning 0mm 0 2463m 5°C 5_4 0cm 0% 4mph 5mph 1034mB
Afternoon 0mm 0 2449m 17°C 17_8 0cm 9% 8mph 16mph 1032mB
Morning 0mm 0 2430m 6°C 6_6 0cm 4% 6mph 8mph 1031mB
Afternoon 0mm 0 2309m 16°C 16_5 0cm 11% 5mph 7mph 1028mB
Morning 0.015625mm 0 2046m 5°C 5_7 0cm 20% 7mph 16mph 1029mB

16 day outlook at a glance

Forecast issued: 2/17/2019 1:43:05 PM

Chat

Your comments and questions. In a resort? Let us know what it's like!


Characters left 250

For terms and conditions see Readers Comments on the Cookie and privacy policy page.